Terug naar catalogus

COSMOS 2554

ActiefNavigatieLEO
NORAD 52202·PAYLOAD·🇷🇺 Russia

Gelanceerd Apr 7, 2022 vanaf Plesetsk Cosmodrome

Loading…

Volgende Passages (komende 24 uur)

TLE

VersSource: Space-Track

Epoch: Sep 14, 2026, 22:14 UTC

1 52202U 22036A   26257.92647137 -.00000057  00000-0  13014-4 0  9991
2 52202  67.1507  10.5833 0004932 273.9730  86.0790 13.96673652226488

Volg COSMOS 2554 in realtime met AllMySat

Download on the App Store